TimeCST,TemperatureF,Dew PointF,Humidity,Sea Level PressureIn,VisibilityMPH,Wind Direction,Wind SpeedMPH,Gust SpeedMPH,PrecipitationIn,Events,Conditions,WindDirDegrees,DateUTC
12:15 AM,48.0,37.6,67,30.04,10.0,South,9.2,-,N/A,,Clear,170,2013-01-11 06:15:00
12:35 AM,47.1,37.4,69,30.03,10.0,South,8.1,-,N/A,,Clear,180,2013-01-11 06:35:00
12:55 AM,47.8,37.0,66,30.03,10.0,South,9.2,-,N/A,,Clear,170,2013-01-11 06:55:00
1:15 AM,49.8,36.9,61,30.02,10.0,SSE,10.4,-,N/A,,Clear,150,2013-01-11 07:15:00
1:35 AM,49.3,36.7,62,30.01,10.0,SSE,9.2,-,N/A,,Clear,150,2013-01-11 07:35:00
1:55 AM,49.1,36.1,61,30.00,10.0,SSE,9.2,-,N/A,,Clear,150,2013-01-11 07:55:00
2:15 AM,48.7,36.0,61,30.00,10.0,SSE,9.2,-,N/A,,Clear,150,2013-01-11 08:15:00
2:35 AM,48.0,35.8,63,29.98,10.0,SSE,8.1,-,N/A,,Clear,160,2013-01-11 08:35:00
2:55 AM,47.7,35.6,63,29.98,10.0,South,10.4,-,N/A,,Clear,190,2013-01-11 08:55:00
3:15 AM,48.2,35.1,60,29.97,10.0,South,10.4,-,N/A,,Clear,170,2013-01-11 09:15:00
3:35 AM,49.6,34.5,56,29.96,10.0,South,8.1,19.6,N/A,,Clear,180,2013-01-11 09:35:00
3:55 AM,50.9,34.0,52,29.95,10.0,South,13.8,-,N/A,,Clear,180,2013-01-11 09:55:00
4:15 AM,50.5,33.4,52,29.94,10.0,Calm,Calm,-,N/A,,Clear,0,2013-01-11 10:15:00
4:35 AM,50.5,32.5,50,29.95,10.0,SSW,10.4,-,N/A,,Clear,200,2013-01-11 10:35:00
4:55 AM,50.7,32.9,51,29.93,10.0,South,15.0,-,N/A,,Clear,190,2013-01-11 10:55:00
5:15 AM,49.6,33.1,53,29.92,10.0,South,12.7,-,N/A,,Clear,190,2013-01-11 11:15:00
5:35 AM,51.1,32.0,48,29.91,10.0,South,19.6,24.2,N/A,,Clear,180,2013-01-11 11:35:00
5:55 AM,52.9,31.3,44,29.90,10.0,South,24.2,29.9,N/A,,Clear,180,2013-01-11 11:55:00
6:15 AM,53.6,29.8,40,29.89,10.0,South,24.2,33.4,N/A,,Clear,190,2013-01-11 12:15:00
6:35 AM,53.6,28.6,38,29.89,10.0,South,23.0,34.5,N/A,,Clear,180,2013-01-11 12:35:00
6:55 AM,53.8,27.1,36,29.90,10.0,South,21.9,32.2,N/A,,Clear,190,2013-01-11 12:55:00
7:15 AM,54.0,25.5,33,29.89,10.0,South,25.3,33.4,N/A,,Clear,190,2013-01-11 13:15:00
7:35 AM,54.3,23.7,31,29.90,10.0,South,24.2,31.1,N/A,,Clear,180,2013-01-11 13:35:00
7:55 AM,54.1,23.5,31,29.91,10.0,South,23.0,31.1,N/A,,Clear,180,2013-01-11 13:55:00
8:15 AM,53.8,22.8,30,29.92,10.0,South,15.0,26.5,N/A,,Clear,170,2013-01-11 14:15:00
8:35 AM,53.8,22.3,29,29.93,10.0,South,17.3,25.3,N/A,,Clear,170,2013-01-11 14:35:00
8:55 AM,54.9,21.0,27,29.94,10.0,South,24.2,33.4,N/A,,Clear,190,2013-01-11 14:55:00
9:15 AM,56.5,21.2,25,29.95,10.0,South,25.3,34.5,N/A,,Clear,190,2013-01-11 15:15:00
9:35 AM,56.7,22.1,26,29.96,10.0,South,23.0,27.6,N/A,,Clear,180,2013-01-11 15:35:00
9:55 AM,56.8,22.6,27,29.97,10.0,South,23.0,32.2,N/A,,Clear,180,2013-01-11 15:55:00
10:15 AM,58.1,23.0,26,29.96,10.0,South,25.3,33.4,N/A,,Clear,180,2013-01-11 16:15:00
10:35 AM,58.3,23.2,26,29.96,10.0,South,24.2,32.2,N/A,,Clear,180,2013-01-11 16:35:00
10:55 AM,57.0,23.2,27,29.95,10.0,South,26.5,35.7,N/A,,Clear,180,2013-01-11 16:55:00
11:15 AM,57.0,23.0,27,29.94,10.0,South,26.5,33.4,N/A,,Clear,180,2013-01-11 17:15:00
11:35 AM,57.4,23.2,27,29.94,10.0,South,24.2,36.8,N/A,,Clear,180,2013-01-11 17:35:00
11:55 AM,57.9,22.6,26,29.93,10.0,South,28.8,39.1,N/A,,Clear,180,2013-01-11 17:55:00
12:15 PM,59.4,22.5,24,29.91,10.0,South,28.8,40.3,N/A,,Clear,170,2013-01-11 18:15:00
12:35 PM,59.4,22.5,24,29.90,10.0,South,25.3,35.7,N/A,,Clear,180,2013-01-11 18:35:00
12:55 PM,59.5,21.7,23,29.89,10.0,South,26.5,34.5,N/A,,Clear,190,2013-01-11 18:55:00
1:15 PM,60.6,20.7,21,29.89,10.0,South,26.5,35.7,N/A,,Clear,190,2013-01-11 19:15:00
1:35 PM,60.1,20.3,22,29.87,10.0,South,28.8,40.3,N/A,,Clear,180,2013-01-11 19:35:00
1:55 PM,59.9,22.3,24,29.85,10.0,South,25.3,33.4,N/A,,Clear,180,2013-01-11 19:55:00
2:15 PM,60.4,20.5,21,29.85,10.0,South,31.1,38.0,N/A,,Clear,190,2013-01-11 20:15:00
2:35 PM,61.2,20.3,21,29.85,10.0,South,33.4,40.3,N/A,,Clear,190,2013-01-11 20:35:00
2:55 PM,61.9,21.0,21,29.85,10.0,South,27.6,36.8,N/A,,Clear,190,2013-01-11 20:55:00
3:15 PM,62.2,22.5,22,29.85,10.0,South,27.6,40.3,N/A,,Clear,190,2013-01-11 21:15:00
3:35 PM,63.0,23.2,22,29.84,10.0,South,28.8,38.0,N/A,,Clear,190,2013-01-11 21:35:00
3:55 PM,63.9,22.6,21,29.85,10.0,South,26.5,38.0,N/A,,Clear,180,2013-01-11 21:55:00
4:15 PM,62.4,23.0,22,29.85,10.0,South,26.5,35.7,N/A,,Clear,180,2013-01-11 22:15:00
4:35 PM,60.6,23.2,24,29.85,10.0,South,24.2,34.5,N/A,,Clear,180,2013-01-11 22:35:00
4:55 PM,61.0,23.9,24,29.86,10.0,South,24.2,31.1,N/A,,Clear,180,2013-01-11 22:55:00
5:15 PM,60.8,24.6,25,29.86,10.0,South,19.6,26.5,N/A,,Clear,180,2013-01-11 23:15:00
5:35 PM,59.5,26.4,28,29.85,10.0,South,17.3,26.5,N/A,,Clear,180,2013-01-11 23:35:00
5:55 PM,58.3,27.7,31,29.85,10.0,South,25.3,28.8,N/A,,Clear,180,2013-01-11 23:55:00
6:15 PM,57.4,27.1,31,29.86,10.0,South,23.0,32.2,N/A,,Clear,180,2013-01-12 00:15:00
6:35 PM,56.7,26.4,31,29.87,10.0,South,16.1,19.6,N/A,,Scattered Clouds,170,2013-01-12 00:35:00
6:55 PM,56.1,24.8,30,29.87,10.0,South,12.7,21.9,N/A,,Clear,170,2013-01-12 00:55:00
7:15 PM,56.3,23.2,28,29.88,10.0,SSE,13.8,-,N/A,,Clear,160,2013-01-12 01:15:00
7:35 PM,55.9,24.3,29,29.88,10.0,SSW,10.4,-,N/A,,Clear,200,2013-01-12 01:35:00
7:55 PM,53.8,25.7,34,29.88,10.0,South,10.4,-,N/A,,Scattered Clouds,190,2013-01-12 01:55:00
8:15 PM,54.1,25.7,33,29.89,10.0,SSW,12.7,-,N/A,,Mostly Cloudy,200,2013-01-12 02:15:00
8:35 PM,55.2,25.7,32,29.89,10.0,SSW,12.7,-,N/A,,Overcast,210,2013-01-12 02:35:00
8:55 PM,55.6,26.1,32,29.89,10.0,SSW,11.5,-,N/A,,Overcast,210,2013-01-12 02:55:00
9:15 PM,56.1,26.2,32,29.88,10.0,SSW,9.2,-,N/A,,Mostly Cloudy,200,2013-01-12 03:15:00
9:35 PM,56.5,26.2,31,29.89,10.0,South,10.4,-,N/A,,Overcast,170,2013-01-12 03:35:00
9:55 PM,57.0,26.1,30,29.89,10.0,South,12.7,-,N/A,,Mostly Cloudy,190,2013-01-12 03:55:00
10:15 PM,56.3,26.8,32,29.89,10.0,South,9.2,-,N/A,,Scattered Clouds,190,2013-01-12 04:15:00
10:35 PM,55.9,26.6,32,29.89,10.0,South,12.7,-,N/A,,Clear,170,2013-01-12 04:35:00
10:55 PM,56.3,26.6,32,29.89,10.0,SSE,12.7,-,N/A,,Clear,160,2013-01-12 04:55:00
11:15 PM,57.0,26.8,31,29.90,10.0,South,11.5,-,N/A,,Clear,180,2013-01-12 05:15:00
11:35 PM,56.8,27.3,32,29.90,10.0,South,12.7,17.3,N/A,,Clear,170,2013-01-12 05:35:00
11:55 PM,56.8,27.9,33,29.91,10.0,South,12.7,-,N/A,,Clear,190,2013-01-12 05:55:00